STARLINK-1305, 45377

Orbit data source: Space-Track

STARLINK-1305, 45377 is a payload satellite owned by SpaceX/Seattle (US) in LEO that was launched on Wed, 18 Mar 2020 UTC via an FALCON 9 launch vehicle from the Air Force Eastern Test Range (AFETR). Payload-class satellites include a variety of spacecraft equipped with specific instruments for various scientific and technological missions. These include communications satellites like Starlink; space stations such as the ISS; scientific satellites like the Hubble; Earth observation satellites from companies like Planet Labs, Umbra, and HawkEye 360; GPS; miniature CubeSats for education and research; and military/defense satellites.

Loading next visibility...
Identifier
45377, 2020-019T
Orbit
LEO
Last TLE update
15 hours ago
Origin
Manufacturer
SpaceX/Seattle
Mission
Operational Commercial Communications
Bus & Motor
STARLINK, Unknown motor
Mass
260 kg wet, ~248 kg dry
Launch date (UTC)
2020-03-18 (5 years ago)
Launch vehicle
FALCON 9
Launch site
Air Force Eastern Test Range (AFETR)
Object type
Payload
Rocket body
Debris
Shape & HBR
Box + 1 Pan, 8.86 m
Radar Cross Section
13.562 m², Large (>1 m²)

Expand to show TLE details & history

TLE from 15 hours ago
0 STARLINK-1305
1 45377U 20019T   25130.08491682  .00000206  00000-0  32753-4 0  9999
2 45377  53.0542  89.5488 0001548  91.1785 268.9381 15.06398381283978
Epoch: 2025-05-10T02:02Z
Definitive object data (Epoch: 2025-05-10T02:02:16.813Z)
Latitude
-0.00004°
Longitude
-169.15306°
Altitude
548.116 km
Speed
7.589 km/s
True Right ascension
05h 58m 11s
True Declination
0° 00' 00"
Sunlit
Object was in daylight at TLE epoch
Visualization TLE readout
Latitude
-23.95794°
Longitude
27.40338°
Altitude
554.59 km
Speed
7.584 km/s
Apparent Right ascension
16h 44m 18s
Apparent Declination
-39° 02' 34"
Sunlit
Object is in full shadow
Visualization observer readout
Local Sidereal Time
01:32:27
Azimuth
255.479° W
Elevation
-53.426°
Doppler factor
1
Orbital elements
Apogee altitude
548.559 km
Perigee altitude
546.415 km
Semi-major axis
6,925.624 km
Eccentricity
0.0001548
Inclination
53.0542°
RAAN
89.5488°
Arg. of periapsis
91.1785°
True anomaly
268.92036°
Mean anomaly
268.9381°
Eccentric anomaly
268.92923°
Mean motion
3.76578 °/min
BSTAR
0.000032753
Orbital period
95.6 mins
Loading maneuver chart data...
Loading SW <> Apogee altitude chart data...
Loading historical data...
Loading historical data...
Loading historical data...
Loading historical data...
Loading historical data...
Loading historical data...
Loading historical data...

STARLINK-1305 Visibility forecast

Observer location: undefined°, undefined°

Span
Click to sort rows by Start time (UTC) header in descending order
Start Az.
Max El. time (UTC)
Max El. Az.
Max El.
End time (UTC)
End Az.
6 mins2025-05-10 22:52:54.286Z181.818° SSW2025-05-10 22:55:54.286Z132.769° SE21.837°2025-05-10 22:58:54.286Z79.486° E
6 mins2025-05-11 00:32:54.286Z258.454° W2025-05-11 00:34:54.286Z302.909° NW35.946°2025-05-11 00:38:54.286Z39.844° NE
5 mins2025-05-11 05:34:54.286Z338.76° N2025-05-11 05:36:54.286Z21.058° NNE26.414°2025-05-11 05:39:54.286Z83.514° E
6 mins2025-05-11 07:13:54.286Z293.886° NW2025-05-11 07:16:54.286Z219.854° SW35.901°2025-05-11 07:19:54.286Z155.962° SSE
|